• In Czech Republic
  • List of Countries
  • For 7 days
  • Water Temperature
  • Satellite Maps
  • Weather Map
  • Weather Widgets
  • user-avatar
    Login

    Hourly Weather Tarim

    Today, 21 January, Sunday

    Time Temperature Precipitation Wind Pressure Humidity
    00:00 +22°C° 0 mm 1 mps 708 mmHg 46%
    01:00 +21°C° 0 mm 1 mps 708 mmHg 49%
    02:00 +20°C° 0 mm 1 mps 708 mmHg 52%
    03:00 +20°C° 0 mm 1 mps 708 mmHg 52%
    04:00 +19°C° 0 mm 1 mps 708 mmHg 53%
    05:00 +19°C° 0 mm 1 mps 709 mmHg 53%
    06:00 +19°C° 0 mm 1 mps 709 mmHg 54%
    07:00 +20°C° 0 mm 2 mps 710 mmHg 46%
    08:00 +21°C° 0 mm 3 mps 710 mmHg 39%
    09:00 +25°C° 0 mm 4 mps 711 mmHg 30%
    10:00 +26°C° 0 mm 4 mps 711 mmHg 27%
    11:00 +27°C° 0 mm 5 mps 711 mmHg 24%
    12:00 +28°C° 0 mm 5 mps 711 mmHg 21%
    13:00 +29°C° 0 mm 6 mps 710 mmHg 20%
    14:00 +29°C° 0 mm 6 mps 710 mmHg 19%
    15:00 +29°C° 0 mm 6 mps 709 mmHg 18%
    16:00 +28°C° 0 mm 6 mps 709 mmHg 21%
    17:00 +26°C° 0 mm 5 mps 709 mmHg 23%
    18:00 +25°C° 0 mm 5 mps 709 mmHg 25%
    19:00 +22°C° 0 mm 5 mps 710 mmHg 27%
    20:00 +21°C° 0 mm 4 mps 710 mmHg 30%
    21:00 +20°C° 0 mm 4 mps 711 mmHg 32%
    22:00 +19°C° 0 mm 3 mps 711 mmHg 33%
    23:00 +18°C° 0 mm 3 mps 710 mmHg 34%

    Tomorrow, 22 January, Monday

    Time Temperature Precipitation Wind Pressure Humidity
    00:00 +17°C° 0 mm 2 mps 710 mmHg 35%
    01:00 +17°C° 0 mm 2 mps 710 mmHg 35%
    02:00 +16°C° 0 mm 2 mps 710 mmHg 36%
    03:00 +15°C° 0 mm 1 mps 710 mmHg 36%
    04:00 +15°C° 0 mm 1 mps 710 mmHg 36%
    05:00 +14°C° 0 mm 1 mps 710 mmHg 37%
    06:00 +14°C° 0 mm 1 mps 710 mmHg 37%
    07:00 +16°C° 0 mm 1 mps 710 mmHg 33%
    08:00 +18°C° 0 mm 1 mps 711 mmHg 28%
    09:00 +20°C° 0 mm 1 mps 711 mmHg 24%
    10:00 +21°C° 0 mm 2 mps 711 mmHg 22%
    11:00 +24°C° 0 mm 2 mps 710 mmHg 20%
    12:00 +26°C° 0 mm 2 mps 710 mmHg 18%
    13:00 +26°C° 0 mm 3 mps 709 mmHg 17%
    14:00 +27°C° 0 mm 3 mps 709 mmHg 17%
    15:00 +28°C° 0 mm 3 mps 708 mmHg 16%
    16:00 +27°C° 0 mm 4 mps 708 mmHg 17%
    17:00 +25°C° 0 mm 4 mps 708 mmHg 18%
    18:00 +23°C° 0 mm 4 mps 708 mmHg 19%
    19:00 +22°C° 0 mm 3 mps 709 mmHg 20%
    20:00 +20°C° 0 mm 3 mps 709 mmHg 21%
    21:00 +19°C° 0 mm 2 mps 709 mmHg 21%
    22:00 +18°C° 0 mm 2 mps 709 mmHg 22%
    23:00 +17°C° 0 mm 2 mps 708 mmHg 22%

    Day after tomorrow, 23 January, Tuesday

    Time Temperature Precipitation Wind Pressure Humidity
    00:00 +16°C° 0 mm 1 mps 708 mmHg 23%
    01:00 +15°C° 0 mm 1 mps 708 mmHg 23%
    02:00 +14°C° 0 mm 1 mps 707 mmHg 24%
    03:00 +14°C° 0 mm 1 mps 707 mmHg 24%
    04:00 +12°C° 0 mm 0 mps 707 mmHg 25%
    05:00 +11°C° 0 mm 0 mps 707 mmHg 26%
    06:00 +11°C° 0 mm 0 mps 707 mmHg 26%
    07:00 +14°C° 0 mm 0 mps 708 mmHg 23%
    08:00 +16°C° 0 mm 0 mps 709 mmHg 19%
    09:00 +19°C° 0 mm 0 mps 710 mmHg 15%
    10:00 +21°C° 0 mm 0 mps 709 mmHg 12%
    11:00 +25°C° 0 mm 1 mps 709 mmHg 10%
    12:00 +26°C° 0 mm 1 mps 708 mmHg 7%
    13:00 +27°C° 0 mm 1 mps 708 mmHg 6%
    14:00 +28°C° 0 mm 1 mps 707 mmHg 5%
    15:00 +29°C° 0 mm 2 mps 707 mmHg 4%
    16:00 +27°C° 0 mm 2 mps 707 mmHg 5%
    17:00 +25°C° 0 mm 2 mps 707 mmHg 6%
    18:00 +22°C° 0 mm 3 mps 707 mmHg 7%
    19:00 +21°C° 0 mm 2 mps 707 mmHg 9%
    20:00 +20°C° 0 mm 2 mps 707 mmHg 12%
    21:00 +18°C° 0 mm 2 mps 708 mmHg 14%
    22:00 +17°C° 0 mm 2 mps 707 mmHg 19%
    23:00 +17°C° 0 mm 2 mps 707 mmHg 24%

    24 January, Wednesday

    Time Temperature Precipitation Wind Pressure Humidity
    00:00 +16°C° 0 mm 1 mps 707 mmHg 29%
    01:00 +15°C° 0 mm 1 mps 706 mmHg 33%
    02:00 +14°C° 0 mm 1 mps 706 mmHg 37%
    03:00 +14°C° 0 mm 1 mps 706 mmHg 41%
    04:00 +13°C° 0 mm 1 mps 706 mmHg 44%
    05:00 +13°C° 0 mm 1 mps 706 mmHg 48%
    06:00 +12°C° 0 mm 1 mps 706 mmHg 51%
    07:00 +15°C° 0 mm 1 mps 707 mmHg 43%
    08:00 +19°C° 0 mm 1 mps 708 mmHg 35%
    09:00 +21°C° 0 mm 1 mps 709 mmHg 27%
    10:00 +23°C° 0 mm 1 mps 709 mmHg 22%
    11:00 +25°C° 0 mm 1 mps 708 mmHg 17%
    12:00 +27°C° 0 mm 2 mps 708 mmHg 12%
    13:00 +28°C° 0 mm 2 mps 707 mmHg 11%
    14:00 +29°C° 0 mm 3 mps 707 mmHg 9%
    15:00 +30°C° 0 mm 3 mps 706 mmHg 8%
    16:00 +28°C° 0 mm 3 mps 706 mmHg 11%
    17:00 +26°C° 0 mm 3 mps 706 mmHg 13%
    18:00 +24°C° 0 mm 3 mps 707 mmHg 15%
    19:00 +22°C° 0 mm 3 mps 707 mmHg 19%
    20:00 +21°C° 0 mm 2 mps 707 mmHg 22%
    21:00 +20°C° 0 mm 2 mps 708 mmHg 26%
    22:00 +20°C° 0 mm 1 mps 707 mmHg 30%
    23:00 +19°C° 0 mm 1 mps 707 mmHg 33%

    25 January, Thursday

    Time Temperature Precipitation Wind Pressure Humidity
    00:00 +18°C° 0 mm 1 mps 707 mmHg 37%
    01:00 +16°C° 0 mm 1 mps 706 mmHg 41%
    02:00 +15°C° 0 mm 1 mps 706 mmHg 45%
    03:00 +15°C° 0 mm 1 mps 706 mmHg 49%
    04:00 +15°C° 0 mm 1 mps 706 mmHg 53%
    05:00 +14°C° 0 mm 1 mps 706 mmHg 57%
    06:00 +14°C° 0 mm 1 mps 707 mmHg 61%
    07:00 +16°C° 0 mm 1 mps 708 mmHg 55%
    08:00 +20°C° 0 mm 1 mps 708 mmHg 48%
    09:00 +21°C° 0 mm 2 mps 709 mmHg 41%
    10:00 +24°C° 0 mm 2 mps 709 mmHg 34%
    11:00 +26°C° 0 mm 2 mps 708 mmHg 28%
    12:00 +28°C° 0 mm 2 mps 708 mmHg 21%
    13:00 +29°C° 0 mm 3 mps 707 mmHg 18%
    14:00 +30°C° 0 mm 3 mps 707 mmHg 16%
    15:00 +31°C° 0 mm 3 mps 706 mmHg 14%
    16:00 +29°C° 0 mm 3 mps 706 mmHg 16%
    17:00 +27°C° 0 mm 3 mps 706 mmHg 18%
    18:00 +26°C° 0 mm 3 mps 707 mmHg 20%
    19:00 +24°C° 0 mm 3 mps 707 mmHg 24%
    20:00 +23°C° 0 mm 2 mps 707 mmHg 27%
    21:00 +21°C° 0 mm 2 mps 708 mmHg 30%
    22:00 +20°C° 0 mm 2 mps 707 mmHg 33%
    23:00 +20°C° 0 mm 1 mps 707 mmHg 36%

    26 January, Friday

    Time Temperature Precipitation Wind Pressure Humidity
    00:00 +19°C° 0 mm 1 mps 707 mmHg 40%
    01:00 +19°C° 0 mm 1 mps 706 mmHg 44%
    02:00 +18°C° 0 mm 1 mps 706 mmHg 49%
    03:00 +18°C° 0 mm 1 mps 706 mmHg 53%
    04:00 +16°C° 0 mm 1 mps 706 mmHg 59%
    05:00 +16°C° 0 mm 1 mps 706 mmHg 64%
    06:00 +15°C° 0 mm 1 mps 707 mmHg 69%
    07:00 +18°C° 0 mm 1 mps 707 mmHg 62%
    08:00 +21°C° 0 mm 1 mps 708 mmHg 54%
    09:00 +23°C° 0 mm 2 mps 709 mmHg 47%
    10:00 +25°C° 0 mm 2 mps 709 mmHg 38%
    11:00 +27°C° 0 mm 2 mps 708 mmHg 30%
    12:00 +29°C° 0 mm 2 mps 708 mmHg 21%
    13:00 +30°C° 0 mm 3 mps 707 mmHg 18%
    14:00 +31°C° 0 mm 3 mps 707 mmHg 16%
    15:00 +33°C° 0 mm 3 mps 706 mmHg 13%
    16:00 +30°C° 0 mm 3 mps 707 mmHg 15%
    17:00 +28°C° 0 mm 3 mps 707 mmHg 16%
    18:00 +27°C° 0 mm 3 mps 707 mmHg 18%
    19:00 +25°C° 0 mm 2 mps 707 mmHg 21%
    20:00 +24°C° 0 mm 2 mps 707 mmHg 24%
    21:00 +23°C° 0 mm 2 mps 707 mmHg 27%
    22:00 +21°C° 0 mm 2 mps 707 mmHg 30%
    23:00 +21°C° 0 mm 1 mps 707 mmHg 34%
    Show more